Location: Jel�evica
(46.1833°N, 14.9833°E)
Time: 08:25:36
(UTC+00:00)

Daily predictions for brighter satellites

Satellite Brightness Start Highest point End
(mag) Time Altitude Azimuth Time Altitude Azimuth Time Altitude Azimuth
Cosmos 292 Rocket 3.8 16:14:02 10° S 16:18:47 67° ESE 16:23:36 10° NNE
Cosmos 1455 4.1 16:21:24 10° ESE 16:22:41 11° E 16:23:59 10° ENE
USA 306 3.5 16:19:43 10° NW 16:23:48 41° NNE 16:27:52 10° E
SeaSat 1 4.4 16:22:15 10° NE 16:23:51 12° NE 16:25:27 10° NNE
Aureole 3 Rocket 3.9 16:20:28 10° SSE 16:24:19 37° E 16:29:29 10° NNE
H-2A R/B 3.6 16:21:15 10° E 16:24:31 16° ENE 16:27:48 10° NNE
CZ-4C R/B 4.4 16:21:55 10° N 16:25:02 39° WNW 16:28:11 10° SW
BREEZE-M R/B 4.4 16:13:33 10° W 16:25:49 66° NNW 16:28:56 10° ENE
H-2A R/B 4.1 16:23:42 10° S 16:27:58 44° W 16:32:18 10° NNW
Okean-O 3.8 16:25:05 10° ESE 16:28:32 23° ENE 16:31:59 10° NNE
Cosmos 2219 3.3 16:23:11 10° NNW 16:28:55 63° ENE 16:34:37 10° SE
SMAP 3.2 16:24:26 10° SSE 16:29:05 83° WSW 16:33:46 10° NNW
USA 215 4.2 16:23:46 10° ENE 16:29:32 35° N 16:35:18 10° WNW
Cosmos 1331 Rocket 4.2 16:25:05 10° SSW 16:30:14 78° WNW 16:35:26 10° NNE
ATLAS 5 CENTAUR R/B 4.1 16:28:00 10° NW 16:30:23 14° NNW 16:32:54 10° NNE
FALCON 9 DEB 3.2 16:29:09 10° WSW 16:32:22 66° NNW 16:35:34 10° NE
ATLAS 2AS CENTAUR R/B 4.0 16:26:44 10° NW 16:33:04 27° NNE 16:38:50 11° ENE
FALCON 9 DEB 3.3 16:31:12 10° WSW 16:34:22 60° NNW 16:37:27 11° NE
Cosmos 2082 4.4 16:30:47 10° NNW 16:36:00 35° NE 16:41:12 10° ESE
Lacrosse 5 3.4 16:32:33 10° NW 16:36:38 24° N 16:40:44 10° NE
AQUARIUS 4.4 16:32:52 10° S 16:37:21 78° WSW 16:41:53 10° NNW
Cosmos 1953 Rocket 3.6 16:35:08 10° N 16:39:35 88° E 16:44:02 10° S
Cosmos 1656 3.8 16:35:22 10° S 16:40:44 53° ESE 16:46:14 10° NE
Cosmos 1244 Rocket 4.5 16:37:20 10° N 16:43:34 71° E 16:49:49 10° SSE
Cosmos 968 Rocket 3.6 16:38:32 10° NNW 16:43:38 51° ENE 16:48:39 10° SE
Cosmos 1408 3.7 16:41:21 10° NNE 16:44:23 24° ENE 16:47:24 10° SE
Cosmos 2058 Rocket 3.1 16:41:49 10° S 16:46:14 62° E 16:50:42 10° NNE
Feng Yun 1-1 Rocket 4.4 16:41:21 10° SSE 16:47:13 71° ENE 16:53:08 10° N
CZ-4B R/B 4.1 16:43:17 10° S 16:48:44 54° W 16:54:09 10° NNW
FALCON 9 DEB 3.6 16:45:52 10° WSW 16:49:03 51° NNW 16:51:36 15° NE
ADEOS Rocket 4.1 16:44:59 10° N 16:51:15 54° WNW 16:58:10 10° SW
Cosmos 2369 4.5 16:46:46 10° SSE 16:51:41 30° ESE 16:56:36 10° NE
USA 281 3.7 16:46:01 10° SSE 16:52:30 65° WSW 16:59:03 10° NNW
Cosmos 1689 Rocket 2.5 16:50:55 10° NNE 16:53:38 36° E 16:56:20 10° S
IRS-1C Rocket 4.1 16:50:30 10° SSE 16:55:42 66° ENE 17:00:58 10° N
Cosmos 1076 Rocket 4.3 16:52:35 10° NNE 16:56:16 28° ENE 16:59:57 10° SE
FALCON 9 DEB 4.2 16:54:57 10° NW 16:58:05 31° NNE 16:59:43 20° ENE
FALCON 9 DEB 3.8 16:55:34 10° W 16:58:40 43° NNW 17:00:47 18° NE
Cosmos 2227 Rocket 2.1 16:54:18 10° NNW 16:59:59 82° ENE 17:05:40 10° SSE
CZ-4C R/B 4.1 16:55:08 10° NNW 17:00:16 23° NNE 17:04:27 15° ENE
SL-08 ROCKET BODY 4.5 16:54:15 10° N 17:00:18 57° ENE 17:06:22 10° SSE
CSL-04 Rocket 4.5 16:55:41 10° ESE 17:00:27 31° ENE 17:05:12 10° N
Cosmos 1892 2.7 16:56:39 10° N 17:00:30 56° E 17:04:19 10° SSE
Cosmos 1939 Rocket 2.7 16:57:00 10° SSE 17:00:55 71° ENE 17:04:49 10° N
Cosmos 2263 Rocket 3.6 16:57:38 10° N 17:01:40 19° NE 17:03:25 17° ENE
Cosmos 1302 Rocket 4.2 16:57:35 10° SSW 17:02:51 79° WNW 17:08:10 10° NNE
H-2A R/B 4.2 17:02:20 10° N 17:05:46 25° WNW 17:09:08 10° WSW
USA 307 2.9 17:03:26 10° NW 17:07:43 64° NNE 17:10:16 23° ESE
COSMO-SKYMED 1 2.5 17:03:33 10° NNE 17:07:54 70° ESE 17:12:14 10° S
SAR-Lupe-4 3.6 17:05:58 10° NNE 17:09:34 83° WNW 17:13:08 10° SSW
Cosmos 1300 4.2 17:06:57 10° SW 17:10:32 39° WNW 17:14:09 10° N
Cosmos 1400 Rocket 3.3 17:08:05 10° SSW 17:12:10 66° WNW 17:16:14 10° N
USA 308 2.9 17:08:24 10° NW 17:12:41 69° NNE 17:15:03 25° ESE
Cosmos 1486 Rocket 4.0 17:07:57 10° NNW 17:13:20 89° WSW 17:18:39 10° SSE
CZ-4B R/B 2.8 17:10:31 10° N 17:13:31 37° WNW 17:16:25 10° SW
Cosmos 1697 Rocket 2.8 17:08:27 10° S 17:13:52 52° ESE 17:19:20 10° NE
Cosmos 1825 2.7 17:12:37 10° N 17:16:09 36° ENE 17:17:29 27° ESE
ERS-2 3.7 17:13:53 10° N 17:17:15 36° WNW 17:20:37 10° SW
Helios 1A Rocket 2.8 17:14:07 10° SSE 17:18:13 74° ENE 17:22:20 10° N
IRS-P2 Rocket 4.5 17:14:45 10° SSE 17:19:57 75° ENE 17:25:17 10° NNW
YAOGAN 1 2.6 17:16:22 10° SSE 17:20:35 55° ENE 17:24:50 10° N
S3M 3.9 17:15:27 10° S 17:21:28 65° E 17:27:35 10° NNE
CZ-4 R/B 4.4 17:17:27 10° SSE 17:21:38 88° W 17:25:49 10° NNW
BREEZE-M TANK 2.9 17:15:40 10° W 17:23:19 76° S 17:24:59 31° ESE
Cosmos 1503 Rocket 3.9 17:18:19 10° NNW 17:23:33 66° ENE 17:28:47 10° SSE
Atlas Centaur 2 4.4 17:18:07 10° SW 17:24:37 26° S 17:30:05 14° SE
Cosmos 2315 Rocket 4.4 17:19:49 10° SSE 17:25:21 36° E 17:30:55 10° NNE
CZ-2D R/B 3.2 17:22:29 10° S 17:26:17 81° WSW 17:30:07 10° NNW
Cosmos 1812 Rocket 3.7 17:22:47 10° SSE 17:27:00 48° E 17:31:13 10° NNE
Cosmos 1340 4.0 17:23:41 10° NNW 17:27:16 41° W 17:30:50 10° SSW
Meteor 2-1 Rocket 4.1 17:22:02 10° S 17:27:28 66° E 17:32:58 10° NNE
Okean O Rocket 4.3 17:24:26 10° SW 17:27:47 21° W 17:31:10 10° NW
CZ-4 R/B 1.1 17:25:12 10° SSE 17:29:05 79° ENE 17:32:56 10° N
Cosmos 1346 Rocket 2.9 17:31:11 10° NNW 17:35:11 75° W 17:39:10 10° S
Cosmos 2058 2.9 17:31:50 10° N 17:35:56 80° W 17:40:02 10° S
SL-4 R/B 1.9 17:32:36 10° WNW 17:36:08 52° NNE 17:36:33 49° NE
Cosmos 1354 Rocket 3.9 17:31:06 10° NNW 17:36:22 74° ENE 17:41:00 14° SSE
Cosmos 1980 Rocket 2.5 17:32:14 10° S 17:37:30 43° ESE 17:39:22 33° ENE
SJ-11-01 4.3 17:35:51 20° SE 17:38:57 57° ENE 17:43:33 10° N
Cosmos 2151 4.0 17:35:01 10° N 17:37:30 28° NNE 17:37:30 28° NNE
Cosmos 2297 Rocket 3.5 17:34:02 10° NW 17:39:21 42° WSW 17:44:37 10° S
Cosmos 1992 Rocket 3.9 17:34:09 10° SSW 17:39:21 90° ESE 17:44:36 10° NNE
PSLV R/B 4.3 17:35:48 10° N 17:39:56 66° WNW 17:44:02 10° SSW
Meteor 2-15 Rocket 4.3 17:35:53 10° S 17:42:02 82° E 17:48:13 10° N
Timation 1 Rocket 4.3 17:36:42 10° NNW 17:42:43 69° ENE 17:46:16 26° SE
CZ-2C R/B 3.2 17:36:57 10° SSE 17:42:45 87° ENE 17:48:22 10° NNW
CSL-04 Debris 4.1 17:37:52 10° SSE 17:43:15 69° ENE 17:48:42 10° N
Cosmos 1315 Rocket 2.8 17:41:58 10° SSW 17:45:55 80° W 17:49:57 10° N
CRYOSAT 2 4.2 17:45:33 10° N 17:50:27 82° E 17:55:19 10° S
Ariane Rocket 4.3 17:53:41 24° NNE 17:53:41 24° NNE 17:56:19 10° N
Geosat 3.9 17:52:54 47° ENE 17:54:03 60° ESE 17:59:00 10° SSW
Meteor 2-10 Rocket 4.0 17:50:36 10° SSW 17:55:49 62° WNW 18:00:54 10° N
BREEZE-M R/B 3.8 17:52:10 10° WNW 17:56:27 80° NNE 17:59:00 42° E
USA 305 3.2 17:53:14 10° WNW 17:57:29 62° SW 17:58:11 53° S
Cosmos 1455 2.8 17:54:04 10° SSW 17:57:46 55° WNW 18:01:32 10° N
SeaSat 1 2.7 18:00:38 49° NE 18:00:38 49° NE 18:05:08 10° NNW
Cosmos 2360 4.1 17:55:01 10° SSW 18:00:45 89° WNW 18:04:36 22° NNE
H-2A R/B 2.1 17:57:46 10° SSE 18:03:12 88° WSW 18:08:42 10° NNW
NOSS 3-4 (A) 3.8 17:56:30 10° NW 18:03:23 63° NE 18:05:39 45° ESE
NOSS 3-4 (C) 3.8 17:56:36 10° NW 18:03:28 63° NE 18:05:42 45° ESE
USA 306 3.3 17:59:46 10° WNW 18:03:58 56° SW 18:04:25 52° SSW
Okean-O 3.9 18:00:35 10° S 18:04:47 41° W 18:09:00 10° NNW
DEBRIS 4.3 17:44:51 10° WSW 18:04:56 88° SSE 18:06:54 47° ENE
MOS 1 Rocket 3.3 18:03:49 10° NNE 18:08:34 85° W 18:13:36 10° SSW
Cosmos 2278 3.5 18:05:18 10° SSW 18:10:59 82° ESE 18:12:45 46° NNE
USA 215 3.8 18:10:10 38° NE 18:11:39 43° NNE 18:17:44 10° NW
NOSS 3-3 (A) 4.2 18:06:33 10° SW 18:12:23 67° NW 18:16:10 26° NNE
NOSS 3-3 (C) 4.2 18:06:39 10° SW 18:12:30 67° NW 18:16:14 27° NNE
ATLAS 5 CENTAUR R/B 4.3 18:15:18 10° NNW 18:17:18 12° N 18:17:34 12° NNE
GEOS 3 Rocket 3.5 18:17:20 74° ESE 18:17:51 85° NE 18:23:16 10° NW
ARGOS 3.1 18:17:21 46° S 18:19:03 86° WSW 18:24:32 10° NNW
Cosmos 44 Rocket 3.3 18:14:58 10° SW 18:19:45 73° NW 18:19:57 71° NNW
Meteor 2-3 Rocket 3.9 18:14:49 10° N 18:19:36 55° NNE 18:19:36 55° NNE
Lacrosse 5 3.0 18:16:15 10° NW 18:20:11 32° N 18:20:11 32° N
ATLAS 2AS CENTAUR R/B 2.7 18:17:59 10° NW 18:25:30 67° NE 18:26:17 63° E
Cosmos 1777 Rocket 4.4 18:34:27 10° NNW 18:38:35 56° NW 18:38:35 56° NW
Cosmos 2263 Rocket 2.6 18:40:42 10° NNW 18:45:08 56° NNW 18:45:08 56° NNW
CZ-4C R/B 3.2 18:43:25 10° NW 18:49:38 54° NNE 18:49:38 54° NNE
Cosmos 1697 Rocket 4.4 18:53:16 10° WSW 18:58:07 29° NW 19:01:26 17° N
Cosmos 1980 Rocket 3.6 19:16:33 10° WSW 19:21:13 33° WNW 19:21:13 33° WNW
ATLAS 2AS CENTAUR R/B 4.5 20:09:42 10° NW 20:13:44 26° W 20:13:44 26° W
